STARLINK-38228, 100192

Orbit data source: Space-Track

STARLINK-38228, 100192 is a payload satellite owned by SpaceX/Seattle (US) in SSO that was launched on Sat, 01 Aug 2026 UTC launched from the Air Force Western Test Range (AFWTR). Payload-class satellites include a variety of spacecraft equipped with specific instruments for various scientific and technological missions. These include communications satellites like Starlink; space stations such as the ISS; scientific satellites like the Hubble; Earth observation satellites from companies like Planet Labs, Umbra, and HawkEye 360; GPS; miniature CubeSats for education and research; and military/defense satellites.

Loading next visibility...
Identifier
100192, 2026-175P
Orbit
SSO
Country
Flag of USUS
Related business
Manufacturer
SpaceX/Seattle
Mission
Operational spacecraft
Bus & Motor
STARLINK V2MO, Unknown motor
Mass
575 kg wet, ~530 kg dry
Launch date (UTC)
2026-08-01 (2 months ago)
Launch vehicle
Unknown
Launch site
Air Force Western Test Range (AFWTR)
Object type
Payload
Rocket body
Debris
Shape & HBR
BOX, 17.7 m
Radar Cross Section
Large (>1 m²)

Expand to show TLE details & history
Last TLE update: 2 days ago

TLE from 2 days ago
0 STARLINK-38228
1 A0192U 26175P   26262.44162529 -.00453679  00000-0 -34288-2 0  9997
2 A0192  97.2832 104.8877 0009426  76.8587 283.3728 15.73532696  9012
Epoch: 2026-09-19T10:35Z
TLE epoch observation values (Epoch: 2026-09-19T10:35:56.425Z)
Latitude
-0.00006°
Longitude
-52.44751°
Altitude
350.515 km
Speed
7.699 km/s
True Right ascension
06h 59m 33s
True Declination
0° 00' 00"
Sunlit
Object was in daylight at epoch
Visualization orbit readout
Latitude
Unknown
Longitude
Unknown
Altitude
Unknown
Speed
Unknown
Apparent Right ascension
Unknown
Apparent Declination
Unknown
Sunlit
N/A
Visualization observer readout
Local Sidereal Time
22:06:19
Azimuth
Unknown
Elevation
Unknown
Doppler factor
Unknown
Orbital elements
Apogee altitude
352.037 km
Perigee altitude
339.361 km
Semi-major axis
6,723.836 km
Eccentricity
0.00094
Inclination
97.2832°
RAAN
104.8877°
Arg. of periapsis
76.8587°
True anomaly
283.26769°
Mean anomaly
283.3728°
Eccentric anomaly
283.32025°
Mean motion
3.93657 °/min
Orbital period
91.45 mins
BSTAR
-0.0034288
Loading maneuver chart data...
Computing Atmospheric mass density...
Loading historical data...
Loading historical data...
Loading historical data...
Loading historical data...
Loading historical data...
Loading historical data...
Loading historical data...

Documentation

Showing up to 5 results
|